Theta_e
326 328 328 328 329 329 330 330 331 332 332 332 332 332 331 332 332 332 332 332 332 331 331 331 331 330 330 330 330 328 326 321 319 319 318 321 331 333 330 333 332 333 328 316 311 308 305 305 305 307 309 311 315 310 316 315 314 313 303 300 297 297 297 301 299 300 302 300 301 303 304 303 300 302 303 305 305 305 304 308 311 315 315 324 326 330 331 331
325 327 327 328 328 329 329 330 331 331 331 331 331 331 332 332 332 332 332 331 331 331 331 331 330 330 330 330 330 327 324 322 317 318 318 330 336 333 333 335 334 333 325 311 310 307 304 303 304 305 305 303 318 309 312 313 313 306 301 299 295 298 300 300 301 301 300 300 302 303 303 303 302 303 302 301 301 302 301 304 308 310 311 321 327 329 329 329
324 326 327 327 328 329 329 329 330 330 331 330 331 331 331 331 331 331 331 330 331 330 330 331 330 330 329 330 328 327 322 318 316 314 320 336 335 335 334 334 333 331 318 310 312 312 305 304 304 303 302 300 308 304 310 309 308 303 304 298 297 303 299 301 301 301 303 304 302 302 303 303 304 304 304 301 300 301 300 300 303 308 308 318 326 328 328 328
323 325 326 327 327 328 329 329 329 330 330 330 330 330 330 330 330 331 330 330 330 330 330 330 329 329 328 328 328 323 321 316 309 316 323 338 336 336 334 333 331 329 319 311 312 312 309 306 305 304 301 299 302 305 302 307 304 304 300 299 300 300 300 299 300 300 300 303 302 302 302 302 304 304 302 301 299 299 301 303 303 305 309 317 325 326 326 326
321 325 326 327 327 327 328 329 328 329 329 329 330 330 329 329 330 330 330 330 329 329 329 329 328 328 328 327 326 321 317 308 309 320 324 335 338 337 335 332 328 329 319 306 309 310 307 305 304 303 301 297 301 303 302 305 305 307 300 301 300 300 298 300 299 298 300 300 303 301 300 301 304 303 301 302 298 296 301 304 305 306 312 317 323 325 325 325
322 324 326 326 327 326 328 328 328 329 329 329 329 329 329 329 329 329 329 329 329 329 329 329 328 328 327 326 323 319 313 295 313 319 333 334 333 335 335 332 327 328 320 310 307 307 306 304 302 300 298 297 298 299 301 304 305 297 300 301 300 300 299 300 300 298 298 302 301 300 302 303 301 300 302 301 300 301 304 305 306 306 316 318 325 325 323 324
321 324 325 326 326 326 327 328 328 328 328 328 329 329 329 329 329 328 329 329 329 328 328 328 328 328 326 325 320 316 311 313 312 326 332 334 334 333 333 331 327 322 317 308 306 305 305 302 301 299 298 297 298 299 302 303 304 301 298 300 298 300 299 300 299 299 298 301 302 304 303 301 300 298 302 301 302 303 304 305 311 312 317 319 321 323 323 324
321 321 324 324 325 325 326 327 327 327 327 328 328 329 329 329 329 328 328 329 328 328 328 328 327 327 325 318 312 308 310 309 315 323 332 333 331 331 330 324 322 317 312 307 305 304 304 301 299 301 297 295 299 300 302 302 302 299 298 300 299 299 299 299 298 298 300 299 298 303 301 300 301 300 301 301 303 306 307 306 312 314 315 319 321 321 322 323
321 320 322 324 324 324 325 326 327 327 327 327 328 328 328 329 328 327 327 328 328 328 327 327 326 326 324 316 311 307 306 319 322 332 332 328 325 326 323 320 319 312 310 308 306 305 303 301 301 301 295 296 299 298 300 300 296 301 301 300 299 299 299 298 299 300 300 300 301 300 299 299 299 301 300 302 302 307 308 307 307 313 313 316 320 322 322 323
320 323 322 323 323 323 324 325 326 326 327 326 327 327 327 328 327 327 327 328 328 328 327 326 326 325 320 314 313 305 312 327 330 330 332 328 323 321 320 320 316 311 308 309 307 305 302 303 302 303 302 299 300 297 299 299 297 301 300 300 299 298 298 300 300 299 301 301 300 298 297 298 300 300 295 301 303 307 306 306 307 308 312 314 316 319 321 322
322 323 323 322 322 323 324 325 325 326 326 326 327 327 326 327 327 327 327 327 327 327 327 326 326 323 315 315 309 304 317 322 326 324 325 327 322 318 316 316 314 310 309 306 306 306 305 304 304 303 304 298 298 298 299 299 300 302 301 299 298 299 299 299 299 298 299 299 299 300 298 298 299 301 296 301 306 306 304 306 307 307 306 309 313 314 318 320
323 323 323 323 323 323 325 325 325 325 326 326 326 326 325 326 326 326 326 327 327 327 327 327 326 319 315 311 308 308 313 321 324 320 321 323 319 317 315 315 314 311 308 304 305 306 306 306 305 302 295 303 295 298 298 301 301 301 300 296 297 298 297 298 297 298 299 298 298 301 297 295 295 295 299 300 302 303 303 304 304 305 307 308 310 312 314 316
322 323 323 323 323 323 324 324 325 325 325 325 326 325 325 325 325 326 326 326 327 326 327 326 324 320 313 306 312 309 314 322 320 319 315 310 308 308 310 313 313 311 309 306 304 306 307 306 306 301 301 299 298 294 299 301 301 300 299 297 295 295 294 298 299 298 298 298 299 300 287 290 294 298 299 300 299 301 300 301 302 302 303 308 309 311 314 316
322 323 323 323 322 322 323 324 324 325 325 325 325 324 324 324 325 326 326 325 326 326 326 326 323 318 313 307 306 312 317 318 316 312 310 310 309 309 308 310 311 308 315 308 312 311 309 304 310 303 305 300 297 304 299 299 300 294 297 298 292 290 290 297 298 297 296 298 299 300 290 291 296 298 299 299 300 300 298 299 302 303 303 305 308 312 314 317
321 322 322 322 322 322 322 323 324 324 324 324 324 324 323 323 324 325 325 325 325 326 326 325 322 315 306 309 310 313 323 317 312 310 311 309 306 304 305 307 307 309 308 310 311 311 307 310 309 300 296 301 303 299 295 295 296 295 292 288 293 290 293 296 299 297 295 296 298 297 291 292 295 296 299 300 300 300 299 299 301 302 302 304 308 311 312 314
322 321 322 322 322 322 322 322 323 323 323 324 323 322 322 322 323 324 325 324 325 325 324 315 315 315 307 305 303 321 314 308 308 311 310 310 308 306 305 305 305 306 306 304 305 308 305 305 300 298 298 300 299 293 293 293 292 293 291 291 289 292 292 294 296 297 300 296 297 295 291 294 295 297 297 299 299 298 298 299 299 302 303 303 307 309 310 311
322 322 321 321 321 321 322 321 321 321 322 322 321 321 321 322 323 323 324 324 323 322 317 310 314 314 301 306 309 306 303 308 311 310 309 310 310 306 305 303 303 303 306 306 309 308 304 301 303 299 301 294 295 295 289 287 287 288 292 289 293 290 291 290 296 297 299 296 292 294 291 291 295 296 296 298 298 297 296 297 298 300 300 302 303 306 308 309
321 321 321 321 321 321 320 320 321 321 321 320 320 320 320 321 322 322 320 320 320 318 316 314 312 306 304 303 299 301 307 306 308 308 308 308 308 306 305 303 303 302 302 300 307 300 302 297 298 293 294 294 294 292 287 284 289 287 288 288 290 293 294 292 290 294 297 296 292 292 290 293 294 295 296 297 298 297 296 297 297 298 299 301 302 304 305 306
321 321 320 321 321 320 320 320 321 320 320 320 320 321 321 321 320 318 314 314 309 304 298 300 302 296 297 301 307 306 307 309 310 307 304 306 307 307 307 305 303 300 297 296 295 299 299 299 299 293 289 291 291 292 290 293 294 293 292 291 291 290 291 291 294 296 297 293 292 292 290 292 295 295 295 296 297 297 297 296 296 297 298 299 301 302 303 304
321 321 321 321 320 320 320 320 320 320 320 317 316 314 312 306 305 304 311 311 306 305 306 304 306 307 303 304 304 308 311 311 304 306 306 308 306 304 303 303 302 301 296 293 295 297 300 292 289 288 291 293 294 295 295 296 294 293 294 293 291 293 293 292 294 295 294 295 292 293 293 293 294 295 296 296 296 296 296 296 297 297 297 298 298 300 301 302
320 320 320 320 320 320 320 320 320 319 319 316 314 308 299 301 297 295 303 306 310 311 307 305 307 308 302 305 304 305 302 303 306 304 305 309 306 303 299 300 297 294 294 297 295 298 297 291 291 293 295 295 295 296 296 295 294 292 293 291 290 292 290 293 293 294 296 293 292 294 293 294 295 295 296 296 295 295 296 296 296 298 298 298 299 299 300 301
320 320 319 319 319 320 320 319 319 318 318 315 311 305 306 307 309 312 308 298 307 310 307 306 309 306 307 306 307 307 305 299 301 304 306 307 303 298 298 298 295 293 296 297 295 293 291 289 294 296 296 296 296 296 295 294 294 294 292 291 290 289 292 293 293 295 295 293 289 293 292 293 295 296 297 296 296 296 297 298 298 298 298 299 299 299 300 301
319 319 319 319 319 319 319 319 318 318 313 310 307 307 306 313 316 316 313 306 302 309 303 304 304 303 303 306 307 307 299 296 296 301 302 304 300 300 298 296 294 295 295 295 290 290 287 291 295 296 296 295 295 295 294 296 298 292 290 289 288 294 289 288 292 294 293 291 292 290 290 292 295 295 296 297 297 298 299 299 299 299 298 299 299 300 301 301
319 319 318 319 319 318 319 318 318 314 310 310 309 308 311 313 315 314 307 299 294 298 302 305 308 302 302 301 306 304 299 298 300 299 305 303 298 301 298 297 294 295 293 293 293 291 290 293 293 294 295 295 293 294 293 291 289 294 294 292 291 293 292 291 290 293 292 294 293 289 288 289 291 292 294 297 299 298 299 299 299 300 300 300 301 301 302 302
318 318 318 318 318 318 317 318 311 309 311 310 309 313 315 315 312 308 301 296 297 295 304 305 310 305 304 314 309 302 302 301 301 304 304 304 300 298 297 300 296 292 293 294 294 292 291 292 293 292 294 294 294 291 293 293 287 290 294 295 294 294 291 291 292 289 288 288 292 290 281 281 287 291 293 296 296 297 298 297 298 299 299 299 300 301 303 303
317 318 318 318 318 318 318 310 308 311 309 305 309 313 315 314 311 308 302 291 285 293 300 295 308 298 310 302 305 303 302 295 302 304 304 304 307 300 298 296 297 292 294 294 293 294 292 289 292 293 293 294 295 292 295 294 289 288 289 296 295 295 293 292 291 291 283 281 291 295 282 279 288 289 292 294 294 295 297 297 297 298 299 300 301 301 303 305
318 317 318 317 318 318 309 303 311 310 303 306 312 314 314 311 313 305 296 287 283 294 291 301 300 302 311 302 302 302 289 292 302 304 303 307 301 302 295 293 294 297 297 296 292 288 290 291 292 294 293 293 292 289 294 294 289 287 294 299 296 295 294 293 293 290 287 292 293 292 291 281 282 288 293 294 294 294 294 296 297 298 298 299 301 301 300 302
317 318 317 318 318 316 310 310 308 304 305 309 314 314 312 311 311 306 295 276 277 296 291 294 302 311 306 302 304 297 297 301 296 298 303 303 301 299 297 294 294 294 295 294 284 295 292 290 293 292 293 290 290 293 298 296 292 292 295 299 296 295 296 295 293 289 290 286 282 286 291 281 279 287 294 294 292 292 292 294 296 297 298 299 300 301 300 301
317 317 317 317 317 316 314 310 308 304 309 312 313 313 312 308 305 296 286 276 292 292 308 292 311 301 302 302 299 299 298 300 294 298 302 302 301 298 293 295 296 294 295 294 289 291 292 292 294 294 293 290 294 291 292 298 292 294 298 299 298 298 298 296 289 288 287 282 280 285 289 280 281 289 290 292 290 291 292 294 296 297 298 298 298 299 301 301
317 317 317 317 315 312 312 312 308 310 311 312 313 311 311 305 298 287 281 274 294 285 295 296 296 294 299 295 295 298 295 297 298 298 299 298 298 299 297 299 295 294 293 296 292 292 293 294 293 294 292 294 291 292 294 294 296 299 298 295 294 293 291 289 289 287 285 279 281 287 290 286 279 286 288 289 292 293 294 294 295 298 297 298 297 298 299 300
317 317 317 316 309 311 310 304 308 311 313 313 311 308 304 300 287 281 275 286 294 293 296 293 292 299 294 292 290 296 296 295 295 297 293 298 294 296 297 295 300 294 291 292 291 293 293 293 295 292 293 293 295 292 296 296 298 298 294 290 291 287 287 285 284 285 279 276 284 282 288 289 279 282 291 293 293 293 294 293 294 295 298 299 299 299 300 299
316 317 317 314 313 315 306 303 309 312 312 311 308 301 296 283 287 279 279 295 285 288 289 289 295 295 294 295 294 292 292 295 295 294 292 292 290 290 292 289 291 284 283 285 286 292 289 290 293 294 295 295 294 291 291 293 295 295 292 290 284 282 281 278 281 276 276 276 281 283 286 284 284 287 291 293 294 294 294 295 295 296 297 299 299 299 299 299
316 316 316 314 313 311 311 311 312 312 311 308 303 299 289 282 275 285 285 288 285 292 289 295 292 294 294 293 291 293 297 290 295 294 295 293 291 291 294 293 294 291 282 287 285 285 288 292 293 294 294 294 296 288 285 285 289 291 288 284 282 278 277 273 276 279 279 281 281 281 285 280 285 287 294 295 296 296 294 295 297 297 298 299 299 298 299 299
316 316 312 313 312 314 313 312 312 311 308 305 298 293 288 279 278 292 288 288 290 294 294 292 293 294 294 290 291 294 290 294 293 292 294 290 291 288 291 294 294 292 292 288 284 284 281 280 286 290 286 295 294 293 291 289 289 290 293 291 284 283 280 274 277 274 274 279 282 282 280 278 279 284 293 294 296 295 294 295 297 297 298 298 298 298 300 300
316 314 313 312 312 312 311 311 311 310 307 302 294 289 281 279 285 284 286 289 291 293 290 295 291 291 290 291 294 294 294 289 294 292 291 290 287 289 288 290 294 294 293 285 287 284 285 284 290 293 292 292 293 295 296 293 290 290 292 293 287 284 288 281 283 282 280 279 278 278 278 283 285 291 293 293 293 293 294 294 294 294 296 297 296 296 296 297
313 311 312 308 308 310 311 311 310 309 304 297 289 285 282 285 283 289 289 296 293 290 290 292 291 288 287 288 293 292 297 292 292 292 290 290 291 289 292 292 292 294 291 286 287 281 284 281 289 294 293 291 291 292 292 295 283 287 290 283 288 292 287 282 281 282 280 279 276 281 281 285 289 291 294 293 292 293 293 292 292 292 293 295 296 297 298 299
309 309 305 307 308 310 311 311 310 306 302 295 287 283 289 290 295 293 296 293 293 294 290 285 286 286 285 285 288 290 292 295 292 290 286 292 288 292 291 293 296 295 295 293 286 292 283 284 289 289 289 291 292 288 293 291 293 289 282 288 293 295 292 286 280 281 278 275 277 280 279 279 283 280 291 291 290 292 291 291 292 293 293 294 295 297 300 299
307 306 306 306 308 311 312 310 308 305 300 294 286 290 293 290 300 295 297 295 294 294 289 287 287 291 286 286 287 290 293 289 289 290 287 290 286 295 293 292 296 296 296 296 288 290 291 280 285 287 289 291 293 294 291 294 294 291 289 296 289 282 281 284 283 277 276 274 276 279 279 280 281 284 287 288 289 291 292 291 292 293 294 294 295 296 299 300
307 304 298 305 310 311 310 310 306 301 296 290 287 287 292 297 300 297 297 297 297 293 289 290 287 290 290 287 289 291 292 286 290 288 286 288 284 293 293 295 293 296 297 296 290 293 292 283 282 288 290 290 291 290 284 285 292 294 293 287 291 286 285 282 282 283 282 276 276 275 279 276 287 286 289 290 289 290 291 291 291 292 294 295 294 296 299 300
303 299 297 308 310 311 310 307 302 297 293 286 288 289 295 294 297 297 298 297 294 293 291 291 291 288 290 290 292 289 291 291 289 289 289 290 289 296 293 297 293 295 296 296 294 295 286 287 280 284 290 290 282 285 285 287 284 285 285 283 286 286 288 286 285 283 280 278 276 276 274 280 286 291 291 292 292 293 293 293 296 297 297 297 297 298 299 299
305 299 298 308 310 310 308 302 296 291 290 292 293 293 295 294 298 296 299 299 297 301 294 293 292 289 290 290 290 293 290 290 290 289 289 289 290 284 294 295 296 293 296 295 293 292 285 285 282 282 282 281 285 289 289 291 291 289 288 285 287 284 282 279 279 287 283 281 276 277 275 281 291 291 293 292 292 293 294 293 295 296 295 296 297 299 301 299
299 292 295 308 309 308 301 292 292 294 291 288 289 295 295 301 296 295 297 299 298 294 301 296 295 293 292 292 292 292 290 289 290 289 290 288 292 292 294 298 296 297 293 288 290 295 291 287 284 281 283 284 289 290 290 291 290 291 289 287 290 288 286 282 278 282 283 281 282 279 277 278 291 291 291 291 292 292 292 292 293 293 294 294 295 297 298 300
298 295 305 308 309 305 297 291 293 291 288 292 299 297 298 296 295 297 296 297 295 299 296 295 294 293 294 293 293 292 292 289 291 289 291 292 292 294 298 297 298 296 295 290 293 291 293 285 282 282 283 287 288 290 287 289 290 290 289 288 289 287 287 286 284 284 281 282 280 280 276 281 292 292 289 291 291 291 292 290 291 292 292 293 294 295 297 297
297 295 299 307 308 304 294 285 286 288 290 294 295 295 299 297 296 295 296 296 295 294 294 294 295 296 293 295 294 291 293 285 291 291 289 292 290 298 297 297 298 294 293 291 290 294 284 285 286 280 279 280 282 286 285 288 288 284 285 288 289 290 289 285 285 286 282 283 282 279 276 280 289 289 289 288 289 291 291 291 290 291 291 295 295 296 297 298
298 299 300 302 305 302 291 293 290 288 289 289 291 291 293 294 298 297 296 295 297 295 296 294 296 297 295 296 294 294 293 292 286 293 293 291 295 296 297 298 298 294 295 297 296 296 287 286 286 279 276 274 273 275 278 281 282 285 286 288 289 289 288 285 283 283 281 283 283 279 280 286 289 288 290 288 290 290 291 291 292 291 293 295 296 297 297 297
293 286 294 296 300 299 298 299 296 292 290 289 288 291 293 291 294 299 297 296 297 297 295 297 297 298 295 294 292 291 291 294 291 287 291 289 287 290 297 297 296 296 296 296 296 294 285 287 288 286 283 281 283 283 287 288 284 283 284 287 287 289 290 288 286 283 282 284 283 283 285 286 287 288 287 289 289 290 290 291 291 292 292 293 294 296 296 297
290 290 290 287 295 295 292 297 296 294 290 293 287 291 289 291 293 294 300 293 298 296 297 296 295 293 292 293 291 291 292 291 294 291 291 290 290 292 294 296 296 295 296 295 295 291 285 283 287 288 287 287 289 288 289 290 286 287 285 285 288 288 288 287 285 283 287 283 281 286 288 285 287 290 289 289 289 289 291 292 292 292 294 294 294 296 298 298
285 288 293 297 290 286 288 289 294 294 294 293 290 293 290 290 290 288 293 298 298 298 293 294 294 294 294 292 292 287 290 289 291 288 292 289 288 291 290 294 294 295 294 293 294 290 285 283 286 287 286 289 289 291 291 291 289 289 288 287 286 287 286 286 286 288 287 284 282 287 288 287 289 291 292 292 292 293 293 294 294 294 295 295 295 295 294 295
286 286 290 295 290 292 292 293 294 294 293 293 291 291 289 290 289 292 292 292 295 293 295 286 291 293 294 295 293 288 290 285 285 290 287 285 286 286 283 288 292 293 294 292 292 291 286 282 285 287 284 286 286 289 291 290 289 288 289 288 288 288 287 287 288 289 288 286 289 289 289 289 292 292 293 293 293 294 293 293 292 293 294 294 294 294 294 294
285 285 285 292 293 293 294 295 294 294 291 293 288 290 291 290 289 292 294 292 288 291 295 291 291 293 294 294 293 289 291 292 291 287 290 289 284 285 285 287 285 288 291 289 290 288 289 283 290 283 282 282 285 285 286 287 286 285 287 290 290 289 289 289 288 289 289 288 289 289 288 288 293 294 294 294 294 294 292 292 292 293 293 294 294 293 294 294
286 286 289 287 288 290 293 294 293 292 290 291 289 291 291 291 290 293 293 296 292 291 293 291 293 293 294 294 293 292 295 294 294 294 293 291 287 291 288 287 291 286 287 288 287 286 288 282 286 283 281 280 282 284 283 283 283 283 283 286 289 288 286 287 286 289 286 285 287 286 285 287 293 295 294 294 293 292 292 292 291 292 293 294 294 294 294 295
288 291 292 290 286 292 291 293 293 291 287 291 291 292 291 291 293 294 290 295 297 296 295 295 295 294 292 293 292 294 297 297 297 297 296 296 295 294 293 293 292 290 287 288 287 286 285 284 283 282 281 279 280 283 280 280 280 279 282 286 289 290 291 290 290 290 290 290 286 284 286 292 293 293 293 294 294 291 292 293 293 294 294 294 294 295 295 295
Wind_Speed
26 26 25 25 25 24 24 22 22 23 21 22 22 22 22 20 19 18 18 14 17 16 15 15 15 15 13 12 13 13 12 6 5 6 8 8 7 11 6 7 1 1 3 0 9 10 9 9 6 3 2 1 1 1 2 1 0 0 2 2 3 5 4 3 6 4 4 6 6 8 8 7 7 3 2 2 1 3 4 6 5 10 7 3 3 11 14 13
27 25 26 24 25 24 24 22 22 23 23 22 22 24 21 20 20 19 18 14 16 16 15 14 15 13 14 14 14 15 7 3 7 10 14 6 12 13 6 7 5 4 7 2 9 7 8 10 11 9 2 2 1 1 2 1 2 2 2 3 4 5 1 3 5 7 3 5 9 6 6 6 6 8 3 4 4 5 4 5 6 8 4 3 6 13 13 12
19 26 27 25 25 25 24 22 23 23 22 22 22 23 23 22 20 20 19 16 16 15 15 14 13 13 14 14 15 13 5 2 4 15 10 12 11 12 9 6 3 4 3 2 5 5 6 9 10 11 4 4 2 2 2 1 2 3 1 2 6 1 3 5 4 4 6 10 8 6 6 4 9 5 4 3 6 5 6 6 7 8 8 6 9 12 12 11
21 21 26 25 25 25 24 23 23 24 23 21 21 22 22 22 21 20 19 18 17 16 15 15 15 15 14 15 14 8 3 2 8 4 7 12 14 12 10 6 2 2 0 4 4 4 6 5 4 10 5 4 3 4 3 2 1 2 3 2 2 3 0 4 5 4 4 3 7 6 5 3 11 5 6 4 7 6 5 7 8 9 12 11 10 13 11 12
25 23 25 26 26 25 24 24 24 24 23 21 20 20 21 21 21 20 20 19 18 17 15 15 15 15 15 14 15 7 6 0 5 13 13 19 14 15 13 9 6 1 2 3 3 1 6 5 5 3 4 5 5 3 3 3 3 1 4 1 3 4 4 4 4 5 3 4 5 5 7 3 6 7 5 6 5 6 6 6 9 8 15 14 12 12 10 11
24 25 26 29 28 26 24 25 25 25 25 21 20 19 20 20 20 20 20 19 19 19 17 15 15 15 14 15 10 4 6 7 0 1 15 22 20 17 15 13 9 2 1 2 2 2 5 5 4 1 1 3 4 5 2 5 4 3 4 2 3 1 2 2 2 4 4 1 4 5 4 4 4 3 4 5 5 1 1 4 4 9 17 16 14 12 11 12
28 23 26 30 25 26 25 25 25 25 24 23 20 19 19 20 20 20 19 18 18 18 19 17 15 15 15 11 4 4 10 9 2 1 2 22 19 18 17 16 11 6 3 5 2 3 4 7 5 3 3 7 11 7 5 3 4 3 2 2 2 4 4 3 2 3 4 3 3 2 5 4 4 3 4 4 4 5 4 3 4 9 16 15 14 14 15 14
26 24 23 27 27 27 25 24 24 24 24 24 22 20 19 19 19 20 19 19 18 17 18 18 16 16 14 7 6 5 8 12 2 4 6 12 19 18 18 13 12 9 8 8 7 5 4 7 8 3 5 5 4 4 2 5 5 6 5 2 1 3 2 2 1 1 1 3 4 2 4 4 5 1 4 6 6 5 4 5 7 13 13 13 13 13 12 11
26 26 23 28 27 27 26 25 24 23 23 23 22 22 22 19 19 20 20 19 18 17 17 17 18 16 15 9 10 9 14 5 2 5 8 6 12 17 16 11 13 13 9 8 6 5 3 5 9 5 3 4 5 7 6 3 4 6 4 3 3 2 3 2 3 1 0 2 1 3 3 4 3 2 2 6 4 6 7 7 4 8 10 10 10 12 12 11
28 23 25 25 25 27 26 25 24 24 24 23 23 22 24 22 19 20 20 19 18 17 17 17 17 17 10 7 9 10 2 7 6 6 8 10 11 17 16 13 14 12 7 5 5 6 7 8 7 6 6 6 6 7 5 5 2 3 3 3 3 3 3 1 2 3 0 1 1 2 4 2 2 2 4 7 5 8 7 6 4 6 7 9 8 9 10 12
28 24 25 26 26 26 26 25 25 24 24 23 22 22 22 20 20 19 20 19 18 17 16 17 16 13 7 7 12 9 2 3 4 8 10 11 13 14 12 14 14 10 10 7 5 9 12 11 7 1 0 3 2 2 0 2 4 4 6 6 4 2 2 1 2 3 2 1 2 3 1 3 2 0 4 2 9 10 9 7 6 5 5 6 9 9 8 9
27 26 25 25 28 27 26 25 25 24 23 23 22 22 22 20 19 19 19 19 17 17 16 14 16 8 5 7 9 5 2 4 6 7 9 12 10 11 10 12 11 11 10 9 9 11 9 5 5 3 3 1 5 1 3 2 1 1 4 2 3 3 2 3 3 3 3 1 4 1 1 1 3 5 7 4 3 6 8 8 7 6 6 5 6 7 6 7
28 27 26 26 26 28 28 25 25 24 24 23 22 23 22 20 19 18 19 18 17 18 15 13 10 4 5 9 6 1 2 6 7 9 8 6 4 6 6 6 6 5 10 12 11 8 6 5 2 5 5 3 3 2 1 2 0 3 3 2 3 3 2 6 3 4 2 1 4 0 1 6 9 13 7 8 6 3 5 6 7 6 6 6 5 6 6 6
27 27 28 30 27 27 26 26 24 24 23 23 23 22 22 20 20 19 18 17 18 16 13 12 6 4 3 6 3 2 5 6 9 9 8 7 9 3 6 4 3 3 1 3 1 1 4 3 2 4 3 2 1 0 1 1 1 2 2 2 3 5 3 8 4 6 3 1 1 0 2 4 6 10 7 7 9 9 6 6 7 7 6 6 6 6 6 6
27 26 26 27 31 28 27 27 24 24 24 24 22 22 21 20 21 20 18 17 17 15 12 10 5 3 4 2 4 1 1 8 8 7 7 11 10 7 5 4 4 2 2 3 1 0 2 2 1 2 2 0 1 1 0 2 2 3 3 4 3 5 1 4 4 9 5 1 4 2 3 7 3 5 7 5 6 8 7 6 7 7 7 6 6 7 7 7
28 27 28 26 28 28 27 26 25 24 25 23 22 22 21 19 19 19 18 14 17 15 9 11 8 6 4 7 3 3 1 6 7 9 4 6 10 10 8 7 4 3 3 1 2 1 2 3 5 2 2 0 0 2 3 2 3 3 5 2 4 4 2 2 2 5 2 6 2 6 3 1 1 2 4 2 5 5 5 7 7 8 8 7 7 6 6 6
29 28 29 33 29 29 28 26 25 25 24 23 23 21 21 20 19 19 18 16 11 6 8 7 7 6 4 1 4 5 6 3 10 5 6 3 3 10 10 8 4 5 2 2 2 2 2 6 1 1 2 2 2 3 3 5 3 4 4 3 4 6 4 2 1 3 2 6 4 5 3 4 1 6 4 4 3 4 5 5 7 8 7 7 7 7 7 7
29 28 27 27 31 29 27 28 26 25 24 24 23 23 20 20 22 21 15 10 6 7 7 2 5 2 7 5 9 10 8 5 6 9 7 3 6 11 9 6 3 9 7 4 1 4 4 3 4 4 2 4 5 5 6 5 4 3 4 4 3 7 8 5 6 5 4 5 4 5 4 9 3 4 5 6 6 6 6 6 5 6 7 7 7 8 8 8
28 29 34 28 26 29 29 27 27 28 27 28 28 28 25 20 10 7 10 9 11 7 4 9 13 12 6 15 9 10 9 9 11 12 7 7 5 5 0 2 11 12 6 6 3 6 3 1 3 4 7 7 9 9 6 5 7 8 6 6 5 4 6 5 1 0 7 6 4 7 8 10 11 5 4 5 6 8 8 6 5 5 6 7 7 7 7 7
28 27 30 33 29 28 29 29 30 31 34 26 21 17 11 13 8 6 9 10 13 17 2 20 16 2 6 14 11 7 12 12 9 4 9 5 9 6 3 6 5 7 10 6 6 7 5 5 6 8 6 7 8 9 8 6 4 4 7 7 9 3 2 4 2 1 2 1 6 5 6 7 7 6 7 9 6 6 6 7 7 6 6 6 6 8 8 8
29 28 29 30 31 30 31 30 33 32 29 21 21 17 15 17 19 13 15 15 14 9 7 17 18 7 4 11 14 17 12 6 6 9 10 8 8 11 6 7 9 6 7 10 9 0 3 6 7 8 8 8 10 8 10 1 5 4 2 6 5 5 1 2 2 1 0 1 3 7 6 8 7 5 5 7 7 9 10 8 8 7 7 6 6 6 8 7
30 28 30 30 31 31 31 30 32 30 27 18 19 10 8 18 5 2 15 11 11 14 3 15 13 7 5 9 11 14 11 10 9 8 4 9 9 8 6 7 11 8 7 5 6 4 6 8 5 8 9 4 5 11 9 5 3 2 1 2 4 4 3 1 4 1 0 1 5 1 7 9 9 8 6 8 11 8 10 10 11 10 9 8 8 8 7 6
31 30 30 31 32 33 32 31 32 27 17 16 12 8 12 7 1 17 6 10 7 6 5 15 19 10 8 7 5 7 15 13 13 10 8 6 11 6 10 8 11 7 7 11 9 6 5 5 7 5 8 4 1 4 5 2 0 1 3 1 2 1 3 1 1 1 0 1 1 3 4 7 6 5 6 5 10 6 9 11 9 9 11 11 10 9 9 9
32 33 30 32 33 34 34 33 29 20 16 23 14 8 8 1 11 17 11 7 8 9 6 14 14 9 9 11 5 5 14 8 12 12 8 7 11 5 10 9 12 8 10 11 10 9 4 3 0 1 4 7 2 2 2 3 3 3 4 2 2 1 0 2 2 1 1 1 2 4 6 7 6 6 6 8 11 8 8 10 10 9 10 9 7 8 11 12
36 33 33 32 33 35 32 30 17 14 15 14 9 7 3 4 4 5 9 9 5 2 6 13 5 5 7 3 7 6 9 7 6 8 9 8 10 6 8 5 6 8 10 11 8 7 7 2 1 3 3 4 5 4 4 4 4 3 4 4 2 3 5 4 4 3 1 2 3 3 2 6 4 10 13 10 9 11 9 9 10 11 10 7 8 9 8 8
32 35 33 33 35 34 33 19 13 13 20 18 16 12 3 4 3 6 2 5 8 6 2 12 2 9 5 6 7 4 11 7 3 10 12 7 2 5 4 7 3 10 11 12 8 2 3 1 1 7 5 3 3 3 4 4 4 3 2 7 7 2 6 5 4 1 1 2 1 1 7 5 1 4 7 10 8 13 8 11 11 10 9 8 10 9 7 8
30 33 34 35 35 36 21 9 16 17 17 10 14 8 4 7 3 5 5 3 6 5 11 2 7 1 3 12 12 6 11 7 0 9 11 1 8 1 7 3 2 0 6 4 2 4 2 2 3 3 5 4 3 3 3 7 4 3 1 3 4 5 6 5 5 4 1 1 1 0 1 2 6 8 4 1 8 6 5 6 7 7 7 9 10 9 8 9
36 33 35 35 36 35 4 12 19 18 19 22 15 7 7 6 4 0 0 7 6 11 9 4 2 2 1 10 10 8 4 16 7 5 5 3 1 1 1 7 8 5 5 5 7 1 5 4 3 5 4 4 7 3 1 6 3 2 0 4 1 2 3 5 4 3 1 3 4 1 1 1 5 4 1 0 0 2 5 7 9 10 9 10 11 11 11 11
35 36 35 34 34 24 7 13 15 13 11 16 11 6 5 7 2 2 5 6 3 5 4 10 1 6 4 12 11 5 7 9 8 7 4 4 2 2 5 5 7 4 3 5 6 2 1 4 9 11 8 7 3 1 2 2 6 1 1 4 4 4 2 2 2 1 0 1 5 4 4 3 7 3 4 2 4 5 6 9 10 12 12 11 9 9 11 9
34 34 35 34 27 14 7 10 10 9 13 13 10 9 7 5 2 5 8 7 6 5 9 4 6 13 13 15 12 10 11 3 5 6 7 6 4 2 0 1 4 7 3 7 7 2 0 0 2 2 5 3 5 2 1 5 3 3 2 5 3 2 2 2 1 1 0 4 6 5 7 5 5 4 7 5 5 7 7 5 3 2 8 9 7 7 7 6
32 34 33 35 19 10 12 13 14 14 11 12 11 9 6 0 6 7 10 3 6 4 5 10 9 13 15 17 13 13 8 5 9 14 8 5 4 3 2 3 3 4 3 3 5 1 1 1 0 1 1 2 3 5 3 1 2 2 2 2 3 3 2 1 0 1 2 4 0 3 1 5 7 2 3 2 1 2 2 1 3 1 1 3 4 4 4 4
33 33 35 23 11 9 13 14 17 13 13 17 16 10 7 10 3 10 6 6 9 8 12 13 14 16 20 17 11 15 11 10 9 13 15 10 9 10 11 9 7 6 4 7 3 2 2 1 1 3 4 1 3 7 3 3 0 2 3 5 6 2 2 1 1 2 4 5 1 1 1 2 10 5 9 10 6 0 1 2 0 2 3 3 3 3 3 3
35 32 34 18 13 7 6 11 13 10 13 17 14 9 6 10 12 9 5 11 2 16 10 15 20 21 17 14 12 12 10 10 10 9 13 9 9 8 7 8 7 7 6 4 4 3 1 1 1 1 2 3 3 9 3 2 2 4 5 5 5 2 2 2 2 2 2 1 2 1 1 2 2 3 11 14 15 12 3 4 4 4 5 5 5 4 4 3
31 32 22 14 9 4 6 16 13 15 15 13 12 8 4 10 9 9 8 9 5 9 15 13 17 16 16 15 11 12 10 7 14 9 12 10 10 11 10 11 11 10 3 7 7 7 5 2 5 6 1 3 1 0 5 6 9 7 3 5 5 3 2 3 3 4 5 3 0 3 1 6 3 4 3 9 11 3 2 2 1 2 2 3 3 3 2 4
35 28 17 11 7 4 10 13 13 17 13 11 9 10 15 12 9 17 9 7 4 11 16 16 17 17 16 10 9 12 6 5 10 13 10 13 14 13 16 14 12 9 4 9 4 4 10 2 2 3 3 1 7 1 1 6 4 2 3 4 1 5 1 2 0 0 0 0 1 1 4 2 4 3 6 5 3 3 3 4 3 4 3 3 3 4 5 5
27 16 13 10 10 5 10 11 14 14 14 12 11 9 13 12 12 13 7 8 9 10 17 18 14 16 13 9 8 14 10 6 13 8 7 12 9 10 8 7 12 18 11 10 4 4 4 4 2 3 1 3 1 2 1 0 5 4 4 4 4 1 6 3 1 0 1 2 6 4 3 7 4 7 10 8 5 6 3 4 4 5 5 5 5 5 5 5
17 15 12 12 9 8 8 12 13 14 10 10 13 11 10 7 3 6 6 14 12 17 19 18 12 14 13 12 11 16 12 8 12 9 9 9 7 12 13 12 11 14 11 7 3 1 9 3 1 2 1 1 0 1 1 3 1 7 1 6 2 1 3 2 3 1 1 5 4 5 6 3 1 6 4 7 6 8 5 5 5 4 4 5 5 5 5 5
16 13 10 13 12 11 10 13 15 11 9 9 13 12 7 8 3 8 7 14 14 15 13 14 9 14 17 16 14 18 12 13 15 9 7 15 4 13 10 9 13 14 14 5 5 3 8 4 1 2 1 3 1 0 2 1 3 2 6 2 7 2 3 1 0 4 2 4 3 2 4 3 7 6 3 1 5 7 5 4 4 3 5 6 6 5 5 5
10 14 11 10 10 10 10 14 12 12 9 10 11 16 7 4 3 4 13 14 12 16 15 10 13 9 13 14 11 13 16 12 14 10 9 9 7 12 17 10 9 13 13 9 6 2 5 5 2 1 1 2 0 2 8 2 2 0 0 2 1 3 4 4 4 1 1 4 4 4 4 4 4 4 5 6 5 5 5 5 5 4 5 6 5 5 5 5
14 8 6 11 13 12 10 13 9 10 9 16 15 10 9 6 5 9 13 19 10 13 8 10 8 13 13 9 14 13 13 11 13 8 6 4 5 6 14 12 8 13 12 6 2 5 1 2 4 1 2 1 1 3 6 10 8 1 2 2 0 1 1 3 3 3 3 3 3 2 3 2 4 6 8 10 5 1 2 3 1 0 1 1 1 4 5 5
9 8 8 14 15 14 12 10 11 15 15 13 10 5 9 4 3 7 13 17 7 4 4 9 12 12 13 12 12 9 7 9 10 10 8 6 13 3 7 8 10 11 8 4 4 3 3 2 7 3 3 3 2 1 1 3 7 10 10 7 9 6 4 4 6 1 2 2 3 4 7 2 2 3 3 1 1 3 1 2 1 0 1 2 3 3 0 4
14 10 6 16 18 19 16 15 10 13 11 15 13 8 5 6 5 10 8 10 10 4 1 7 8 8 11 10 13 13 9 10 10 8 7 7 10 3 2 7 14 13 12 8 7 1 4 3 9 5 3 3 0 1 1 1 0 2 3 7 10 7 7 5 7 5 0 4 1 1 3 7 3 2 2 1 0 0 1 1 2 1 1 1 2 2 2 1
9 5 9 22 20 22 16 13 15 15 9 8 3 3 5 6 8 7 9 8 6 2 5 6 11 9 7 8 13 10 16 8 14 14 10 8 5 6 5 10 13 15 9 3 6 4 9 4 6 3 3 1 1 1 2 2 2 0 4 2 7 9 9 8 5 4 4 1 2 1 6 3 1 0 1 4 5 4 3 2 4 4 4 3 2 2 3 1
6 12 12 8 16 13 13 18 19 14 7 6 11 5 1 4 8 8 6 10 5 6 6 5 8 7 8 6 9 12 16 6 9 10 7 7 3 4 11 11 20 10 13 9 12 8 4 2 9 5 2 1 2 1 2 1 0 2 1 2 1 1 3 2 4 2 2 5 6 5 10 5 4 4 4 3 5 5 4 3 4 4 3 2 3 2 2 2
8 6 7 12 14 13 14 8 15 17 19 17 17 11 7 5 6 11 10 9 4 4 5 5 7 7 4 5 7 8 13 8 4 8 4 6 3 3 6 12 17 9 7 7 8 8 4 6 9 8 9 9 5 8 11 9 7 0 1 2 4 4 7 5 6 3 6 4 7 4 7 5 3 1 2 4 3 5 5 3 2 4 3 2 1 2 3 4
6 13 5 6 7 8 8 4 4 10 11 9 10 7 10 5 2 1 13 4 5 4 3 4 5 9 5 8 7 7 10 7 4 6 7 5 1 1 3 12 11 6 7 15 11 10 3 3 6 9 12 13 11 2 5 11 6 8 6 7 6 5 4 3 2 3 9 4 8 5 8 12 8 4 2 5 4 5 7 4 4 4 4 5 4 4 4 4
3 11 16 14 7 11 9 6 4 8 15 17 13 10 13 10 5 2 1 4 4 7 4 7 5 9 7 11 9 10 12 10 4 7 6 7 2 1 6 6 7 5 15 10 13 6 3 4 7 10 8 6 4 5 9 13 9 9 9 7 7 8 8 7 7 8 4 4 11 5 7 11 13 9 7 7 6 5 5 5 4 4 4 4 7 4 4 3
3 3 2 4 14 21 17 13 12 14 14 19 10 11 14 14 10 8 2 1 6 6 7 2 9 10 14 14 10 6 8 7 7 8 7 3 5 1 4 6 4 4 3 5 5 5 6 8 5 6 6 5 5 8 12 10 10 10 12 11 10 9 8 12 11 12 6 8 13 10 10 15 16 10 9 9 7 6 6 7 5 3 2 3 3 5 5 4
2 1 1 2 2 7 16 19 25 18 20 23 9 15 14 17 17 10 5 4 7 7 8 7 13 13 14 12 11 8 13 7 6 7 6 5 7 6 4 3 2 3 1 5 2 0 3 2 4 6 5 4 4 3 7 9 6 6 10 11 12 13 13 14 14 15 15 12 12 14 13 18 16 9 9 7 7 7 6 3 3 1 3 6 5 5 4 4
2 2 1 5 4 4 16 8 8 7 11 19 11 13 14 19 20 12 5 10 7 7 6 8 12 10 11 11 10 10 13 15 14 9 4 12 6 3 5 4 6 1 1 4 4 2 5 3 11 5 5 5 7 6 6 7 6 6 5 7 7 8 11 14 14 16 16 15 16 17 14 17 15 8 6 5 3 1 2 3 5 6 5 5 5 3 3 5
1 2 1 1 7 1 12 8 12 14 11 15 13 11 11 16 18 15 7 8 17 13 13 15 14 10 9 12 11 10 9 7 9 13 15 17 14 10 10 3 11 8 3 5 3 1 4 2 2 6 6 5 4 7 5 3 2 1 4 6 8 11 12 12 12 9 7 8 9 9 12 17 20 8 5 6 4 5 5 5 6 6 3 3 3 4 5 7
2 2 2 2 2 3 13 11 11 11 12 14 15 13 12 18 14 16 5 5 4 8 11 12 13 11 9 12 14 12 8 7 10 10 15 11 8 9 4 10 16 14 8 7 4 7 6 6 6 6 7 5 4 6 8 5 3 3 9 15 19 15 12 9 10 10 13 13 11 11 19 19 7 2 10 13 8 5 6 8 6 3 5 6 6 6 7 6
Wind_Direction
231 213 209 203 196 191 191 187 182 180 175 176 172 168 169 168 168 168 166 167 161 164 166 164 159 156 148 147 140 135 142 134 167 194 207 214 153 145 167 260 294 232 219 113 20 5 356 340 337 112 330 54 222 259 162 224 308 353 228 207 234 249 200 181 204 147 129 127 151 166 177 133 145 157 110 158 100 97 145 108 85 64 57 71 65 113 121 129
237 208 204 202 197 192 190 187 184 182 178 177 173 169 165 166 167 165 167 160 162 159 162 160 155 149 147 150 147 151 156 166 189 214 216 147 139 157 186 247 280 307 322 4 55 2 352 345 338 341 298 275 126 259 129 198 143 185 243 190 237 220 222 354 29 77 146 150 162 163 188 149 162 147 160 141 161 127 159 132 133 95 83 74 107 116 126 138
247 217 205 201 197 191 188 188 185 184 180 176 173 170 168 166 166 164 165 157 157 159 156 152 146 147 151 151 154 162 139 169 253 236 220 158 152 155 168 207 290 328 346 32 54 20 352 331 330 316 307 275 184 228 192 196 161 237 303 247 243 40 83 22 43 67 39 132 152 153 193 187 142 155 143 178 165 153 179 162 157 142 144 153 138 132 137 145
237 235 210 202 197 193 187 186 187 184 183 178 174 170 167 167 166 163 162 157 156 155 156 155 155 155 155 156 158 163 121 140 234 218 194 162 158 159 162 166 212 318 269 59 63 12 305 307 317 307 306 281 263 206 172 185 162 202 180 228 272 344 268 24 50 28 32 104 144 162 166 167 155 137 156 186 155 194 201 188 176 170 157 156 161 145 152 154
231 233 216 206 199 193 186 185 186 184 182 179 174 172 166 165 164 163 161 158 156 154 155 158 159 156 157 160 168 151 118 332 249 204 183 167 155 153 153 150 127 254 334 87 92 334 293 305 302 311 313 302 272 199 237 174 219 14 224 200 334 358 69 22 52 36 14 342 130 154 157 172 140 114 177 193 188 185 196 194 174 171 152 153 163 154 155 161
221 228 216 205 197 193 185 184 186 185 182 178 175 173 169 165 162 161 161 159 157 153 155 160 160 162 157 170 170 187 161 207 137 247 167 163 160 161 146 132 141 126 97 55 76 26 314 279 257 260 282 258 257 218 209 212 150 247 241 243 59 36 72 349 62 353 345 26 134 145 174 100 123 151 205 196 218 110 40 11 154 169 150 158 156 152 163 169
217 221 215 203 196 192 185 181 184 183 179 175 173 171 169 165 161 158 158 156 155 154 154 160 163 158 169 161 186 207 201 245 17 124 260 156 162 159 151 129 136 128 151 136 120 107 242 263 259 235 234 257 272 253 242 167 181 220 256 117 37 44 82 4 54 344 351 45 107 114 94 126 152 177 202 223 93 115 62 14 55 104 136 141 151 166 170 175
214 211 213 207 193 188 184 181 181 181 178 175 172 168 166 164 158 156 153 153 154 153 152 159 163 166 150 156 145 205 213 239 206 283 68 169 155 151 141 138 143 144 160 162 152 178 230 253 241 229 262 269 287 337 254 160 181 218 244 146 123 91 125 79 135 52 16 46 336 151 146 159 180 241 157 221 139 135 103 77 70 112 130 145 153 166 172 175
215 207 210 211 189 183 183 179 176 176 176 173 170 169 166 162 158 153 153 151 151 152 155 159 166 170 170 166 176 180 220 198 98 132 130 109 134 137 138 143 160 156 176 174 168 178 203 244 245 212 245 227 279 284 284 191 221 219 241 114 157 104 112 156 95 126 133 57 331 86 173 76 65 81 231 210 164 130 117 95 105 122 138 147 160 167 168 175
212 200 202 209 185 177 181 174 173 172 171 171 170 168 172 163 157 152 149 150 149 151 158 161 169 169 179 191 193 212 203 119 123 129 128 131 139 141 157 149 162 165 152 171 153 188 219 238 245 194 214 290 267 264 314 303 273 286 144 127 113 121 121 220 135 122 160 137 187 168 199 112 81 119 244 198 158 136 111 117 138 139 159 155 162 172 172 174
204 203 201 203 185 176 173 172 170 170 168 168 166 168 168 161 156 152 149 145 148 152 156 165 174 159 176 220 185 213 117 179 129 129 133 144 147 151 156 156 167 158 149 159 197 208 220 241 301 356 24 230 342 309 250 262 332 351 103 91 98 150 106 153 111 128 165 120 193 248 146 83 141 168 240 135 141 148 140 138 153 162 179 169 168 173 173 180
202 201 200 195 179 169 172 168 168 167 164 166 165 165 167 158 155 151 147 141 147 153 154 172 169 174 217 212 213 194 302 110 145 122 127 151 159 156 147 159 170 159 148 152 209 223 223 236 296 251 234 101 240 18 266 330 295 234 164 161 140 150 138 173 160 173 209 129 191 264 128 229 153 223 209 157 163 151 150 156 165 176 168 179 173 169 173 181
201 201 196 191 177 169 166 166 165 163 163 162 161 162 163 155 151 147 142 137 146 154 157 169 168 211 232 207 218 42 243 127 120 119 116 92 106 74 105 144 169 149 167 167 200 207 211 212 277 282 262 256 292 219 259 288 234 343 262 228 141 171 232 193 136 149 172 108 193 72 244 240 213 218 190 154 146 155 166 171 175 185 175 168 177 168 172 181
196 198 195 185 175 165 164 162 163 163 160 159 159 159 159 152 150 145 139 138 144 153 158 159 175 208 251 225 130 234 111 117 117 116 119 132 97 54 84 82 101 73 61 181 139 169 179 183 258 285 299 266 237 293 213 45 308 191 217 266 208 131 223 168 159 154 163 281 188 37 195 278 241 214 157 158 154 161 185 187 174 182 188 171 171 170 178 191
191 191 185 182 165 165 161 159 160 160 158 155 153 151 152 151 147 138 128 135 145 148 144 145 196 214 218 189 79 134 331 133 136 143 144 144 126 103 114 126 132 101 88 116 134 235 161 133 233 253 245 227 235 284 133 182 206 242 178 231 253 183 53 163 167 173 160 258 210 145 303 242 353 124 140 152 157 162 181 198 177 183 185 181 170 174 178 186
183 184 175 175 164 160 157 154 157 159 155 146 148 148 144 143 137 132 127 131 141 132 123 160 191 253 238 207 160 114 187 170 170 146 183 136 151 154 148 138 107 100 132 67 112 147 219 174 204 218 225 180 191 246 255 178 217 240 203 143 203 210 147 174 246 216 6 136 202 208 223 271 102 94 118 135 167 185 195 185 189 185 184 183 181 183 181 177
179 178 177 167 164 158 152 151 154 156 146 140 137 138 137 139 131 127 123 130 126 126 150 164 187 209 217 53 97 187 168 99 110 127 151 154 128 127 121 118 138 132 125 92 138 140 184 189 33 344 248 234 163 205 223 222 211 229 192 228 180 205 147 205 49 211 126 153 186 234 238 244 162 160 164 172 186 184 218 215 191 187 182 182 182 184 188 191
175 172 166 164 157 152 150 149 152 144 139 135 132 135 129 128 125 116 122 119 121 139 195 166 199 143 259 133 190 193 146 131 153 135 131 93 131 144 140 152 130 142 137 123 126 185 168 188 149 212 149 211 204 207 199 200 194 184 186 224 238 203 182 168 164 194 148 238 191 196 233 262 225 174 171 190 187 182 209 217 215 190 178 185 183 187 192 195
175 175 162 159 153 148 147 147 143 140 137 132 127 118 113 106 100 94 134 146 145 132 185 175 181 190 219 182 188 149 156 141 120 135 136 139 155 151 287 86 144 139 158 155 186 194 174 140 155 213 198 190 204 211 203 234 180 197 185 191 237 184 194 203 170 144 165 181 221 182 206 228 245 201 191 188 194 187 206 216 227 218 192 188 187 189 189 196
169 170 162 151 151 147 145 143 142 139 136 131 127 119 111 136 137 153 168 191 200 178 261 175 180 181 37 140 164 108 113 134 120 153 136 140 143 161 165 145 155 163 150 182 162 208 156 177 190 203 200 191 205 216 230 250 333 322 194 184 217 174 211 67 97 30 25 112 224 224 222 231 243 236 202 189 181 203 202 205 214 216 210 203 191 187 195 195
162 163 156 148 148 147 143 142 143 144 141 140 139 141 159 166 153 170 172 197 203 219 129 156 184 203 58 127 118 135 135 147 125 147 162 151 158 156 165 162 163 185 182 158 155 194 156 194 204 195 210 202 193 209 231 317 302 339 332 154 221 211 199 14 106 232 306 116 238 221 256 252 245 240 227 164 163 203 198 202 204 207 207 210 205 200 195 203
157 159 152 149 147 146 144 143 145 148 143 142 149 164 169 174 33 53 138 154 214 224 188 160 178 219 108 129 160 140 127 134 142 139 111 169 167 179 166 176 172 178 173 130 106 146 194 204 193 196 208 229 202 195 226 228 255 308 12 286 205 223 110 186 71 29 227 86 273 347 227 239 237 236 236 164 194 205 201 193 197 197 206 209 205 206 201 191
157 156 151 148 147 146 145 144 146 150 148 153 169 190 168 193 50 119 131 82 147 241 219 162 177 183 143 148 168 158 135 160 159 154 163 193 166 214 156 181 182 147 146 156 169 148 179 217 218 215 189 137 80 169 182 143 224 324 305 28 248 75 123 278 334 113 283 204 297 14 312 280 288 280 261 227 192 208 201 199 204 195 202 206 203 191 193 200
159 153 151 147 146 147 145 146 147 155 168 165 159 179 121 332 135 148 128 131 140 190 203 170 173 163 155 162 169 206 149 158 149 167 161 173 173 148 162 187 175 155 177 175 171 171 167 155 93 333 133 160 147 109 163 186 216 224 247 301 304 91 56 107 186 169 50 349 112 324 315 287 237 245 245 235 230 220 202 200 206 209 210 207 203 196 191 193
153 151 148 146 147 146 145 145 156 178 161 144 188 186 138 89 57 353 130 102 128 137 332 164 208 163 150 347 147 196 149 138 174 145 162 183 171 164 186 196 178 173 176 183 169 167 190 213 306 132 161 152 162 169 198 152 232 249 215 202 240 343 110 83 120 128 97 284 219 144 341 282 217 216 225 221 216 222 213 204 210 209 214 204 206 212 206 196
151 148 145 147 147 146 145 151 180 157 157 175 179 202 203 103 15 66 141 103 150 159 141 184 123 171 127 142 161 195 152 153 146 160 156 198 250 181 155 209 183 175 175 177 188 163 171 348 195 166 154 175 165 203 193 172 209 177 255 195 183 113 114 127 157 97 252 229 302 79 179 275 313 256 233 221 202 212 208 205 214 210 206 198 209 210 199 197
150 146 147 149 150 147 153 183 157 150 163 176 189 186 178 72 43 43 158 101 182 171 164 84 177 190 207 160 173 157 177 169 314 135 159 133 181 7 181 174 77 293 165 156 175 222 116 90 68 123 131 142 177 205 203 174 168 235 230 341 199 123 134 160 152 162 219 105 352 60 164 248 291 278 317 304 175 206 204 216 225 220 210 209 214 212 207 204
148 150 151 153 155 160 123 135 157 173 181 165 172 135 75 97 82 155 68 130 218 129 192 176 212 13 183 165 185 178 96 128 124 195 173 162 91 70 241 166 171 179 148 133 182 54 138 144 162 134 140 150 190 183 297 176 172 198 277 14 59 157 158 148 144 169 212 77 298 219 262 323 254 271 209 23 301 241 225 208 222 229 225 221 217 213 212 210
150 151 155 157 157 157 118 156 168 163 133 159 136 103 103 86 100 214 151 180 118 132 84 135 53 142 151 163 193 185 118 160 155 136 115 120 353 158 189 186 172 127 59 153 181 171 308 167 175 156 155 183 137 86 18 151 189 241 183 55 65 42 66 129 157 157 345 100 246 221 192 214 281 247 246 248 215 228 226 218 216 212 210 212 212 208 207 208
152 154 154 153 152 172 148 145 157 125 149 147 117 101 101 98 147 180 156 223 137 169 184 107 199 167 167 168 182 175 154 175 68 135 148 158 180 8 334 242 156 126 95 45 66 32 251 324 238 89 186 129 130 83 94 68 93 127 148 83 42 62 63 13 50 108 21 239 242 212 195 180 295 249 198 174 219 202 231 250 250 228 202 206 199 186 180 174
155 153 154 156 164 163 141 158 162 144 125 126 115 108 119 156 184 151 178 159 138 111 125 155 154 160 168 170 174 179 161 115 130 139 149 163 170 196 148 130 95 82 75 63 44 97 45 31 50 324 311 144 115 82 11 101 41 115 137 123 103 5 43 50 338 69 174 264 172 320 233 181 202 282 230 202 21 137 172 262 181 143 116 125 110 115 129 137
155 155 157 162 133 145 163 163 153 143 136 132 126 145 181 144 253 193 163 134 170 169 171 157 162 169 177 178 169 174 163 128 156 157 160 175 166 179 192 185 160 128 186 168 142 142 58 115 87 24 299 155 144 100 8 30 360 98 137 133 130 197 79 300 108 223 220 229 253 357 12 302 240 245 285 293 269 224 180 175 155 153 147 126 122 111 98 96
154 155 157 156 140 154 150 134 142 133 130 138 145 166 179 162 176 180 139 173 183 156 191 170 166 171 173 161 178 166 152 157 164 172 153 160 160 198 209 198 189 181 172 153 118 148 43 108 184 79 18 246 209 146 152 102 201 153 159 151 132 171 152 203 210 195 255 304 277 236 242 259 261 263 230 252 272 265 214 174 143 143 156 166 156 147 145 171
153 150 156 160 141 100 134 141 146 134 138 150 159 170 180 169 188 196 157 188 145 169 142 168 158 160 165 182 167 161 164 160 160 162 162 160 175 181 203 217 184 191 139 155 161 180 139 288 228 150 214 147 249 205 180 150 156 190 174 155 170 168 160 188 176 194 210 206 244 279 94 233 127 251 235 235 247 286 97 66 84 101 117 133 134 144 174 198
151 154 149 135 118 117 142 147 145 140 139 157 174 178 164 178 177 184 169 177 134 156 154 154 155 158 176 182 152 176 173 135 172 156 173 164 191 189 188 197 190 184 132 143 201 159 197 132 319 334 255 228 178 310 357 112 95 184 164 86 89 224 308 180 188 93 103 24 328 331 200 224 200 264 288 240 239 216 195 180 163 208 193 161 180 199 209 212
144 154 142 146 149 153 152 153 149 144 155 163 162 183 190 182 177 183 181 144 150 154 150 148 154 166 165 172 159 173 173 134 174 156 182 193 189 193 185 190 189 190 179 178 133 142 145 211 324 333 13 56 339 322 355 206 172 221 113 185 192 148 95 107 4 213 75 16 268 170 308 298 273 298 272 271 226 251 214 219 204 236 223 183 202 205 203 212
153 147 151 148 154 146 157 156 153 154 174 176 164 182 197 196 202 163 130 160 155 143 150 153 174 165 168 177 172 175 169 144 174 166 186 176 201 202 189 200 187 187 207 138 170 202 146 125 325 29 151 348 94 43 302 59 272 97 127 211 113 126 103 134 230 41 219 223 260 140 206 277 202 288 259 231 221 247 224 221 222 227 207 205 229 221 208 197
153 153 116 156 157 140 159 157 151 163 172 183 186 189 196 190 191 166 136 130 145 156 155 163 158 178 174 172 178 170 161 166 175 179 184 174 248 181 187 189 187 196 193 161 120 204 109 75 10 21 56 314 295 12 46 19 47 117 177 190 145 225 266 260 201 241 262 239 263 242 209 237 176 233 352 244 213 252 244 211 179 211 217 223 232 233 230 194
139 135 144 158 117 140 157 152 158 164 176 183 195 199 183 205 130 155 155 145 154 158 165 174 145 196 169 183 162 167 164 181 165 188 164 190 216 179 192 175 183 186 190 174 160 172 143 134 308 345 5 218 360 163 184 205 338 194 100 36 11 104 189 166 185 257 89 268 275 288 180 251 206 217 225 264 239 227 224 172 207 223 217 226 228 225 207 181
138 137 162 146 135 138 157 154 157 173 189 192 191 202 163 173 165 156 157 147 157 163 173 158 177 152 176 178 156 164 176 175 168 181 194 158 204 178 186 175 175 178 177 166 147 146 165 100 153 280 318 107 201 209 205 164 151 234 71 110 127 81 234 116 323 189 183 221 226 285 304 287 254 215 210 226 224 104 122 159 157 236 338 269 226 205 189 184
149 139 132 145 141 141 152 154 170 183 192 205 198 181 162 180 172 153 160 144 135 347 163 164 159 170 166 148 163 167 159 167 170 182 191 156 184 175 216 179 142 165 152 134 118 175 84 144 133 138 108 238 227 37 161 192 193 177 161 182 167 122 111 161 261 188 155 199 240 260 248 274 281 19 345 66 32 157 120 127 149 314 318 332 343 355 198 198
151 151 148 146 140 155 161 160 193 190 195 189 183 177 161 121 145 156 159 153 147 140 263 150 170 163 160 164 162 165 160 177 172 179 196 179 195 181 198 141 151 155 162 175 167 274 141 98 110 149 199 184 60 299 334 289 33 168 188 196 178 169 148 147 210 233 125 247 91 184 297 266 250 306 320 307 86 359 178 158 220 252 267 275 313 281 294 325
146 79 119 147 153 166 170 174 181 187 197 185 106 11 127 154 152 158 153 161 144 147 143 171 171 159 181 160 160 159 164 177 173 193 188 183 173 199 176 161 149 158 138 125 97 213 81 100 81 57 18 348 272 219 259 317 311 230 281 230 167 191 187 183 179 172 155 189 217 252 242 234 288 318 325 322 311 308 296 231 241 256 262 276 258 270 259 283
107 120 124 142 160 185 180 174 179 193 186 170 199 163 248 154 150 152 168 162 153 164 154 145 159 185 158 162 157 169 166 163 198 182 187 175 178 204 177 169 158 163 164 188 167 197 124 218 113 128 76 12 344 334 335 280 351 260 216 209 250 182 135 83 99 71 166 209 175 180 245 262 267 324 320 332 312 299 273 238 200 251 285 270 269 255 209 198
113 48 73 144 169 196 202 196 190 180 177 181 185 159 162 151 174 173 157 161 129 150 133 158 156 134 150 144 149 156 176 187 140 197 148 166 177 332 188 161 163 167 179 156 142 161 138 165 142 155 165 170 186 196 205 203 197 256 356 117 191 166 151 146 211 176 214 223 184 204 258 243 260 351 317 302 300 305 290 269 209 210 242 289 316 259 202 190
158 128 130 98 186 215 253 37 329 181 171 176 182 181 164 134 359 312 150 150 144 132 103 112 106 123 135 139 137 159 179 197 133 174 161 145 77 339 299 158 168 162 144 137 140 141 140 174 178 178 189 200 201 147 81 110 122 182 212 179 184 192 185 163 94 178 210 213 212 219 235 265 253 272 305 279 270 250 283 291 249 258 253 252 259 254 210 198
317 136 153 150 134 232 225 241 253 178 185 173 184 171 179 161 149 72 217 154 203 150 130 145 147 144 173 155 162 171 179 173 109 134 166 119 37 116 2 81 64 67 136 128 148 94 110 180 200 194 206 192 133 144 160 140 162 196 181 204 191 180 181 173 183 222 171 208 255 225 238 252 251 247 244 256 262 262 263 268 268 244 218 215 227 222 177 169
97 319 212 207 174 178 194 238 220 199 180 183 184 163 178 161 166 166 15 25 142 149 127 128 164 171 169 172 148 158 167 173 148 162 144 90 114 121 69 10 67 334 132 135 154 118 141 183 217 179 221 200 163 137 161 155 172 183 194 189 193 190 176 185 211 223 190 202 235 230 227 246 253 237 240 231 220 223 231 243 223 208 195 203 197 180 179 188
42 328 213 337 220 220 209 187 183 188 177 183 175 172 172 172 178 173 152 140 160 175 157 156 185 177 177 169 160 162 162 156 209 174 150 152 139 134 82 53 33 13 87 124 74 307 107 194 180 175 210 221 227 160 155 171 181 182 193 200 195 185 191 198 211 215 212 222 230 239 238 244 249 241 235 234 212 219 230 181 121 133 200 202 191 194 188 203
36 71 196 335 336 164 178 115 152 188 186 185 185 190 178 178 179 159 157 155 161 192 162 168 174 175 171 172 171 179 185 189 173 146 113 122 144 140 160 165 157 336 86 135 141 306 118 231 153 160 196 233 219 185 161 176 174 203 202 198 195 189 205 208 213 219 217 227 230 240 248 257 258 243 243 246 236 223 89 139 189 216 219 196 192 196 207 221
79 352 3 128 164 147 160 168 174 182 175 183 203 177 192 185 186 171 174 185 175 170 177 184 165 165 169 177 185 192 185 174 143 163 156 145 168 185 141 220 144 152 159 137 141 250 134 238 130 133 179 238 208 177 185 86 102 174 238 213 200 187 198 210 216 219 200 220 240 256 263 254 249 248 272 268 213 174 199 212 221 236 213 179 188 213 224 235
103 298 281 352 87 235 167 170 178 173 197 189 192 177 189 187 180 166 149 335 197 186 181 165 157 152 176 182 197 196 169 153 161 162 167 165 150 152 120 150 155 154 173 157 155 153 170 146 149 154 174 227 212 151 100 91 59 295 247 218 207 206 203 202 214 206 206 201 215 220 237 242 264 235 255 256 241 218 221 219 233 231 212 200 207 216 228 240